ON1TG-13 Weather Reports


time (UTC)temp
F
wind
direction
speed
knots
gust
knots
rain 1hr
in
rain 24hr
in
rain mn
in
humidity
%
barometer
mb
20260902013743 32 194 6.1 11.3 0.00 0.00 0.00 100
20260902012126 32 194 6.1 13.0 0.00 0.00 0.00 100
20260902010501 32 200 6.1 11.3 0.00 0.00 0.00 100
20260902004839 32 188 6.1 11.3 0.00 0.00 0.00 100
20260902003217 32 194 6.1 13.0 0.00 0.00 0.00 100
20260902001557 32 190 5.2 10.4 0.00 0.00 0.00 100
20260901234332 32 184 6.1 9.6 0.00 0.00 0.00 100
20260901232715 32 192 6.1 10.4 0.00 0.00 0.00 100
20260901231117 32 195 6.1 9.6 0.00 0.00 0.00 100
20260901225525 32 193 5.2 9.6 0.00 0.00 0.00 100
20260901223938 32 194 7.0 11.3 0.00 0.00 0.00 100
20260901220823 32 175 4.3 9.6 0.00 0.00 0.00 100
20260901215251 32 183 4.3 10.4 0.00 0.00 0.00 100
20260901213735 32 203 6.1 9.6 0.00 0.00 0.00 100
20260901212227 32 196 5.2 10.4 0.00 0.00 0.00 100
20260901210713 32 199 8.7 13.9 0.00 0.00 0.00 100
20260901205202 32 194 7.0 10.4 0.00 0.00 0.00 100
20260901203654 32 192 5.2 10.4 0.00 0.00 0.00 100
20260901202141 32 196 6.1 13.0 0.00 0.00 0.00 100
20260901200631 32 210 6.1 9.6 0.00 0.00 0.00 100
20260901195123 32 216 7.0 12.2 0.00 0.00 0.00 100
20260901193616 32 207 7.8 10.4 0.00 0.00 0.00 100
20260901192107 32 205 6.1 8.7 0.00 0.00 0.00 100
20260901190600 32 198 5.2 9.6 0.00 0.00 0.00 100
20260901185053 32 200 7.0 13.0 0.00 0.00 0.00 100
20260901183546 32 213 7.8 12.2 0.00 0.00 0.00 100
20260901182039 32 232 6.1 12.2 0.00 0.00 0.00 100
20260901180532 32 253 6.1 12.2 0.00 0.00 0.00 100
20260901175025 32 250 6.1 12.2 0.00 0.00 0.00 100
20260901173518 32 240 7.8 13.0 0.00 0.00 0.00 100
20260901172011 32 278 9.6 13.9 0.00 0.00 0.00 100
20260901170504 32 275 8.7 15.6 0.00 0.00 0.00 100
20260901164957 32 271 8.7 16.5 0.00 0.00 0.00 100
20260901163451 32 268 4.3 12.2 0.00 0.00 0.00 100
20260901161944 32 278 11.3 15.6 0.00 0.00 0.00 100
20260901153423 32 271 9.6 14.8 0.00 0.00 0.00 100
20260901151916 32 283 8.7 16.5 0.00 0.00 0.00 100
20260901150409 32 267 7.0 13.9 0.00 0.00 0.00 100
20260901144902 32 304 8.7 15.6 0.00 0.00 0.00 100
20260901143356 32 277 10.4 14.8 0.00 0.00 0.00 100
20260901141848 32 293 9.6 16.5 0.00 0.00 0.00 100
20260901140341 32 262 7.0 13.0 0.00 0.00 0.00 100
20260901134835 32 291 9.6 14.8 0.00 0.00 0.00 100
20260901133328 32 299 8.7 14.8 0.00 0.00 0.00 100
20260901131821 32 271 9.6 13.9 0.00 0.00 0.00 100
20260901130314 32 274 9.6 14.8 0.00 0.00 0.00 100
20260901124807 32 292 8.7 13.9 0.00 0.00 0.00 100
20260901121753 32 278 8.7 13.0 0.00 0.00 0.00 100
20260901120246 32 270 8.7 14.8 0.00 0.00 0.00 100
20260901114739 32 311 10.4 14.8 0.00 0.00 0.00 100
20260901113232 32 279 7.8 14.8 0.00 0.00 0.00 100
20260901110218 32 243 7.0 13.9 0.00 0.00 0.00 100
20260901104717 32 279 6.1 11.3 0.00 0.00 0.00 100
20260901103204 32 262 6.1 13.9 0.00 0.00 0.00 100
20260901101657 32 303 6.1 12.2 0.00 0.00 0.00 100
20260901100151 32 296 6.1 12.2 0.00 0.00 0.00 100
20260901094644 32 299 6.1 12.2 0.00 0.00 0.00 100
20260901093137 32 295 8.7 13.9 0.00 0.00 0.00 100
20260901091630 32 302 8.7 12.2 0.00 0.00 0.00 100
20260901090123 32 305 7.8 12.2 0.00 0.00 0.00 100
20260901084615 32 293 7.8 12.2 0.00 0.00 0.00 100
20260901083108 32 266 5.2 11.3 0.00 0.00 0.00 100
20260901080054 32 269 6.1 11.3 0.00 0.00 0.00 100
20260901071533 32 275 7.0 10.4 0.00 0.00 0.00 100
20260901070026 32 312 6.1 10.4 0.00 0.00 0.00 100
20260901063012 32 302 6.1 13.9 0.00 0.00 0.00 100
20260901061505 32 279 9.6 12.2 0.00 0.00 0.00 100
20260901054451 32 295 5.2 7.8 0.00 0.00 0.00 100
20260901052944 32 303 4.3 10.4 0.00 0.00 0.00 100
20260901051437 32 302 4.3 11.3 0.00 0.00 0.00 100
20260901045930 32 304 4.3 8.7 0.00 0.00 0.00 100
20260901044423 32 323 3.5 9.6 0.00 0.00 0.00 100
20260901042916 32 327 4.3 9.6 0.00 0.00 0.00 100
20260901041410 32 334 6.1 9.6 0.00 0.00 0.00 100
20260901035902 32 331 7.0 11.3 0.00 0.00 0.00 100
20260901032847 32 335 6.1 13.0 0.00 0.00 0.00 100
20260901031340 32 332 5.2 16.5 0.00 0.00 0.00 100
20260901025833 32 325 6.1 14.8 0.00 0.00 0.00 100
20260901024326 32 325 7.8 13.9 0.00 0.00 0.00 100
20260901022819 32 343 7.0 14.8 0.00 0.00 0.00 100
20260901021312 32 340 7.0 13.9 0.00 0.00 0.00 100
20260901015805 32 283 5.2 7.8 0.00 0.00 0.00 100